User: anonymous   Login
Location: Unspecified
(0.0000°N, 0.0000°E)
Time: 10:16:21
(UTC+00:00)
Language:

AMOS 1 - Orbit

View from above orbital plane
View from above orbital plane
View from above satellite
View from above satellite

Ground track
Ground track

The orbit data is extracted from the following two-line orbital elements,

1 23865U 96030B   17147.42000299 -.00000112 +00000-0 +00000-0 0  9993
2 23865 007.0319 054.2749 0007678 117.2776 072.1057 00.97117873076453
Epoch (UTC): 27 May 2017 10:04:48
Eccentricity: 0.0007678
inclination: 7.0319°
perigee height: 36661 km
apogee height: 36727 km
right ascension of ascending node: 54.2749°
argument of perigee: 117.2776°
revolutions per day: 0.97117873
mean anomaly at epoch: 72.1057°
orbit number at epoch: 7645

The dashed part of the orbit path shows where the satellite is in the earth's shadow,  

DLR